This is the latest recevied weather packets stored in our database for station/object KC1IUC-13. If no packets are shown the sender has not sent any weather packets the latest 10 day(s).
| Time | Temp. | Humidity | Pressure | Rain* | Wind** | Luminosity | Snow |
|---|---|---|---|---|---|---|---|
| 1777532044 | 7.78° C | 84% | 1004.9 hPa | 1.27 mm | - | 0 W/m² | - |
| 1777531504 | 8.33° C | 84% | 1005.2 hPa | 1.02 mm | - | 0 W/m² | - |
| 1777530964 | 8.33° C | 83% | 1005.2 hPa | 1.02 mm | - | 0 W/m² | - |
| 1777530424 | 8.33° C | 83% | 1004.9 hPa | 1.27 mm | - | 0 W/m² | - |
| 1777529884 | 8.33° C | 83% | 1005.2 hPa | 2.03 mm | - | 0 W/m² | - |
| 1777529344 | 8.33° C | 83% | 1005.6 hPa | 2.29 mm | - | 0 W/m² | - |
| 1777528804 | 8.33° C | 82% | 1005.2 hPa | 2.79 mm | - | 0 W/m² | - |
| 1777528444 | 8.33° C | 82% | 1004.9 hPa | 2.79 mm | - | 0 W/m² | - |
| 1777527904 | 8.33° C | 82% | 1004.9 hPa | 3.56 mm | - | 0 W/m² | - |
| 1777527364 | 8.33° C | 82% | 1005.2 hPa | 3.3 mm | - | 0 W/m² | - |
| 1777526824 | 8.33° C | 81% | 1005.2 hPa | 3.05 mm | - | 0 W/m² | - |
| 1777526284 | 8.33° C | 81% | 1005.6 hPa | 2.79 mm | - | 0 W/m² | - |
| 1777525744 | 8.33° C | 81% | 1006.3 hPa | 2.54 mm | - | 0 W/m² | - |
| 1777525204 | 8.33° C | 80% | 1006.3 hPa | 2.29 mm | - | 0 W/m² | - |
| 1777524844 | 8.33° C | 80% | 1006.6 hPa | 2.03 mm | - | 0 W/m² | - |
| 1777524304 | 8.89° C | 79% | 1006.6 hPa | 1.27 mm | - | 0 W/m² | - |
| 1777523764 | 8.89° C | 79% | 1006.3 hPa | 1.02 mm | - | 0 W/m² | - |
| 1777523224 | 8.89° C | 79% | 1006.6 hPa | 0.76 mm | - | 0 W/m² | - |
| 1777522684 | 9.44° C | 78% | 1006.6 hPa | 0.51 mm | - | 0 W/m² | - |
| 1777522144 | 9.44° C | 78% | 1006.6 hPa | 0.51 mm | - | 0 W/m² | - |
| 1777521604 | 9.44° C | 77% | 1006.6 hPa | 0.25 mm | - | 0 W/m² | - |
| 1777521244 | 9.44° C | 77% | 1007 hPa | 0.51 mm | - | 0 W/m² | - |
| 1777520704 | 9.44° C | 76% | 1006.6 hPa | 0.51 mm | - | 0 W/m² | - |
| 1777520164 | 9.44° C | 76% | 1006.6 hPa | 0.51 mm | - | 0 W/m² | - |
| 1777519624 | 9.44° C | 75% | 1007 hPa | 0.51 mm | - | 0 W/m² | - |
* Rain latest hour (hover to see other rain measurements)
** Current wind speed in m/s (hover to see current wind gust speed)